Погода в Лебе

Польша     54°45′26″N   17°33′29″E
темп.,
°C
ветер,
м/с
пор.,
м/с
влажн.,
%
обл.,
%
осадки,
мм/ч
давл.,
гПа
погр.,
м
1 марта, пн
пн101:00+4юз44932 0.0 103379
04:00+3юз56944 0.0 1032116
07:00+3зюз58923 0.0 1033151
10:00+4зюз69938 0.0 1033275
13:00+5зюз811868 0.0 1032301
16:00+5зюз9139014 0.0 1031342
19:00+4зюз8129010 0.0 1032282
22:00+4зюз711890 0.0 1031246
2 марта, вт
вт201:00+4зюз712890 0.0 1031248
04:00+4з813870 0.0 1030293
07:00+4з813860 0.0 1030322
10:00+4з7108729 0.0 1030396
13:00+4зсз679020 0.0 1032342
16:00+4зсз459219 0.0 1031205
19:00+4зсз129210 0.0 103222
22:00+3ю22910 0.0 103222
3 марта, ср
ср301:00+3ю339033 0.0 1033101
04:00+2ююз45900 0.0 1030165
07:00+2юз46890 0.0 1029198
10:00+4юз46841 0.0 1027233
13:00+6зюз45754 0.0 1025166
16:00+6зюз46750 0.0 1022145
19:00+5зюз44820 0.0 102050
22:00+5юз56880 0.0 1017113
4 марта, чт
чт401:00+4з711920 0.0 1015320
04:00+4з610938 0.0 1012301
07:00+4з7109125 0.0 1011548
10:00+3зсз6885100 0.2 1011648
13:00+3сз5591100 0.4 1012430
16:00+1св81097100 0.8 1011560
19:00+1св91193100 1.7 1013744
22:00+2ссв7870100 0.3 10141055
5 марта, пт
пт501:00+2ссв676788 0.4 10151061
04:00+1с566339 0.1 10161092
07:00+2ссз9106566 0.9 10171078
10:00+2с786035 0.3 10191329
13:00+2ссз565618 0.3 10201292
16:00+2сз565723 0.1 10201218
19:00+1ссз676947 0.3 1022908
22:000с466999 0.7 1023884